[[{"header":{"parameterUnit":"m.s-1","parameterCategory":2,"la1":30.2991,"la2":30.254,"lo1":-89.0895,"lo2":-89.0444,"dy":0.0017,"dx":0.0017,"nx":28,"ny":28,"refTime":"2023-03-13T21:00:00:Z","depth":"0","parameterNumber":2,"parameterNumberName":"U-component_of_CURRENTS"},"data":[0,0,0,0,0,0,0,0,0,0,0,0,0,0,0,0,0,0,0,0,0,0,0,0,0,0,0,0,0,0,0,0,0,0,0,0,0,0,0,0,0,0,0,0,0,0,0,0,0,0,0,0,0,0,0,0,0,0,0.2088,0.2088,0,0.2141,0.2141,0.2142,0.2161,0.216,0.216,0.216,0.2191,0.2192,0.2193,0,0,0,0,0,0,0,0,0,0,0,0,0,0.2005,0.2006,0.2088,0.2089,0.2089,0.2141,0.2141,0.2142,0.2161,0.216,0.216,0.216,0.2191,0.2192,0.2193,0,0,0,0,0,0,0,0,0,0,0,0,0,0.2046,0.2006,0.2088,0.2106,0.2108,0.2141,0.2141,0.2142,0.2161,0.216,0.216,0.216,0.2191,0.2192,0.2193,0.2204,0,0,0.2197,0.2198,0,0,0,0,0,0,0,0,0.2044,0.2049,0.2102,0.2105,0.2107,0.2145,0.2124,0.2162,0.2161,0.2139,0.216,0.216,0.2175,0.2178,0.2186,0.2205,0.2207,0.2198,0.2198,0.2199,0.2199,0,0,0,0,0,0,0,0.2041,0.2047,0.2107,0.2103,0.2106,0.2112,0.2118,0.2131,0.2155,0.2141,0.2143,0.2151,0.2176,0.2185,0.2187,0.2207,0.2198,0.2199,0.22,0.22,0.2263,0.2264,0,0,0,0,0,0,0.2038,0.2044,0.2106,0.2109,0.2076,0.2114,0.212,0.2132,0.2156,0.216,0.2151,0.2152,0.2183,0.2185,0.2188,0.2221,0.2199,0.22,0.2201,0.2262,0.2264,0.2264,0,0,0,0,0,0,0.2036,0.2043,0.2104,0.2079,0.2087,0.2116,0.2129,0.2133,0.2146,0.2164,0.2167,0.216,0.2183,0.2186,0.2212,0.2221,0.2201,0.2202,0.2261,0.2263,0.2264,0.2274,0,0,0,0,0,0,0.2033,0.2042,0.2049,0.2079,0.2088,0.2128,0.2129,0.2134,0.2151,0.2153,0.2172,0.2175,0.2183,0.221,0.2213,0.2223,0.2203,0.226,0.2262,0.2264,0.2273,0.2276,0.2278,0,0,0,0,0,0.203,0.2037,0.2049,0.2056,0.2098,0.2129,0.2134,0.2153,0.2152,0.2162,0.2179,0.2175,0.2222,0.2212,0.2215,0.2226,0.226,0.2262,0.2263,0.2271,0.2275,0.2278,0,0,0,0,0,0,0.2,0.2041,0.2054,0.2073,0.2102,0.2132,0.2143,0.2154,0.2175,0.2175,0.2187,0.2192,0.2217,0.2223,0.2211,0.225,0.224,0.2242,0.2244,0.2248,0.2251,0.2253,0.2204,0,0,0,0,0,0.1999,0.2017,0.2057,0.2071,0.2087,0.2116,0.213,0.2144,0.2167,0.2176,0.219,0.2207,0.2228,0.2238,0.2255,0.2277,0.2311,0.2287,0.2289,0.2291,0.2297,0.2348,0.2356,0.2271,0.2271,0.2271,0,0,0.199,0.2016,0.2024,0.2066,0.2089,0.2115,0.2123,0.2148,0.2167,0.2176,0.2201,0.2216,0.2236,0.2263,0.2274,0.2269,0.2342,0.2294,0.2296,0.23,0.2351,0.2359,0.2367,0.2272,0.2272,0.2272,0,0,0.1981,0.2007,0.2021,0.2048,0.2088,0.2112,0.212,0.2155,0.2171,0.2198,0.2211,0.2237,0.226,0.2284,0.2297,0.2326,0.2353,0.2327,0.2344,0.2393,0.24,0.2407,0.2494,0.2509,0.2329,0.2329,0.2329,0,0.1967,0.1997,0.2029,0.2052,0.2076,0.2111,0.2134,0.2156,0.2193,0.2214,0.2206,0.2261,0.2272,0.2318,0.2327,0.2331,0.2377,0.2327,0.2397,0.2404,0.2411,0.2498,0.2514,0.233,0.233,0.233,0.233,0,0.1976,0.2,0.2011,0.2056,0.2085,0.211,0.2152,0.2178,0.2197,0.2222,0.2266,0.2288,0.2326,0.2329,0.2335,0.2391,0.2416,0.2393,0.2387,0.242,0.251,0.2526,0.2331,0.2331,0.233,0.233,0,0,0.1941,0.2006,0.2008,0.2034,0.2092,0.2115,0.2155,0.2209,0.2243,0.2267,0.2314,0.2341,0.236,0.2376,0.2391,0.2425,0.2518,0.243,0.2432,0.2515,0.2665,0.274,0.2765,0.2505,0.2507,0.2509,0.272,0,0.1941,0.1982,0.2017,0.2056,0.2086,0.2134,0.2172,0.2221,0.2265,0.2318,0.2347,0.2397,0.2377,0.2407,0.2436,0.2506,0.2556,0.2465,0.2622,0.2627,0.2688,0.2784,0.2739,0.2928,0.2736,0.2739,0.2741,0,0.1937,0.1972,0.2007,0.2073,0.2091,0.2116,0.2196,0.2235,0.2317,0.2355,0.2408,0.2444,0.2523,0.2483,0.262,0.2566,0.2617,0.2656,0.2665,0.274,0.2732,0.2858,0.2965,0.2864,0.2766,0.2764,0.2762,0,0.1901,0.1962,0.1991,0.2012,0.2089,0.2114,0.2159,0.2241,0.2298,0.2391,0.2456,0.2528,0.2606,0.2657,0.2762,0.2698,0.2919,0.284,0.2958,0.2965,0.2962,0.2965,0.2985,0.2925,0.2924,0.2923,0.2923,0,0.1887,0.1907,0.1975,0.1988,0.2032,0.2093,0.2153,0.2212,0.2319,0.2409,0.2475,0.258,0.2651,0.2786,0.2821,0.299,0.2982,0.3002,0.3032,0.2969,0.297,0.2908,0.2849,0.2931,0.293,0.2928,0.2927,0,0.1832,0.1878,0.1914,0.1989,0.2012,0.2041,0.2149,0.2204,0.2316,0.2443,0.2487,0.2664,0.2862,0.2962,0.3105,0.3114,0.3164,0.3274,0.3226,0.3247,0.3219,0.3164,0.3155,0.3055,0.343,0.3433,0.3436,0,0.1807,0.1819,0.1892,0.192,0.1949,0.2009,0.2057,0.2177,0.2256,0.2504,0.2571,0.2818,0.2991,0.3273,0.3362,0.3505,0.3326,0.3506,0.3353,0.3257,0.3216,0.3045,0.2944,0.3367,0.3369,0.3371,0.3372,0,0.1758,0.178,0.181,0.1877,0.1924,0.1981,0.2069,0.2137,0.2308,0.2451,0.2681,0.2851,0.3179,0.3346,0.3563,0.361,0.3355,0.3544,0.3438,0.3186,0.3006,0.2912,0.3212,0.3386,0.3385,0.3384,0.3383,0.3382,0.1713,0.1733,0.1787,0.1844,0.1894,0.1964,0.2,0.2123,0.2269,0.2492,0.2689,0.2943,0.3229,0.355,0.3573,0.3596,0.3501,0.3492,0.3447,0.3293,0.3138,0.3506,0.3707,0.3708,0.3708,0.3708,0.3709,0,0.17,0.1735,0.1767,0.184,0.1873,0.1921,0.2015,0.2058,0.2203,0.2461,0.2665,0.3047,0.3246,0.3418,0.3581,0.35,0.3274,0.3402,0.3103,0.3014,0.3361,0.3296,0.3424,0.3425,0.3425,0.3425,0.3425,0.3425,0.1701,0.1741,0.1768,0.1817,0.1852,0.188,0.1921,0.1995,0.2146,0.2431,0.2684,0.2922,0.3252,0.3481,0.3457,0.3367,0.3044,0.3001,0.2897,0.3105,0.3105,0.3106,0.3028,0.3098,0.3098,0.2428,0.2424,0.242]},{"header":{"parameterUnit":"m.s-1","parameterCategory":2,"la1":30.2991,"la2":30.254,"lo1":-89.0895,"lo2":-89.0444,"dy":0.0017,"dx":0.0017,"nx":28,"ny":28,"refTime":"2023-03-13T21:00:00:Z","depth":"0","parameterNumber":3,"parameterNumberName":"V-component_of_CURRENTS"},"data":[0,0,0,0,0,0,0,0,0,0,0,0,0,0,0,0,0,0,0,0,0,0,0,0,0,0,0,0,0,0,0,0,0,0,0,0,0,0,0,0,0,0,0,0,0,0,0,0,0,0,0,0,0,0,0,0,0,0,-0.052,-0.0521,0,-0.0593,-0.0594,-0.0595,-0.0656,-0.0656,-0.0657,-0.0657,-0.074,-0.0742,-0.0744,0,0,0,0,0,0,0,0,0,0,0,0,0,-0.0454,-0.0455,-0.052,-0.0521,-0.0522,-0.0593,-0.0594,-0.0595,-0.0656,-0.0656,-0.0657,-0.0657,-0.074,-0.0742,-0.0744,0,0,0,0,0,0,0,0,0,0,0,0,0,-0.0502,-0.0455,-0.052,-0.0559,-0.0563,-0.0593,-0.0594,-0.0596,-0.0656,-0.0656,-0.0657,-0.0658,-0.0739,-0.0742,-0.0744,-0.0746,0,0,-0.0752,-0.0754,0,0,0,0,0,0,0,0,-0.0499,-0.0505,-0.0553,-0.0556,-0.0561,-0.0614,-0.0601,-0.0646,-0.0655,-0.0622,-0.0657,-0.0658,-0.0697,-0.0704,-0.0718,-0.075,-0.0754,-0.0753,-0.0754,-0.0755,-0.0756,0,0,0,0,0,0,0,-0.0496,-0.0502,-0.0551,-0.0553,-0.0558,-0.058,-0.0587,-0.061,-0.0657,-0.0625,-0.0629,-0.0634,-0.07,-0.0715,-0.0721,-0.0755,-0.0753,-0.0755,-0.0757,-0.0758,-0.0793,-0.0792,0,0,0,0,0,0,-0.0481,-0.0499,-0.0549,-0.0553,-0.0529,-0.058,-0.0589,-0.0598,-0.0656,-0.0665,-0.0634,-0.0637,-0.0711,-0.0717,-0.0724,-0.0718,-0.0755,-0.0758,-0.0759,-0.0793,-0.0792,-0.0792,0,0,0,0,0,0,-0.048,-0.0485,-0.0546,-0.0526,-0.0535,-0.058,-0.059,-0.0599,-0.0612,-0.0662,-0.0672,-0.0637,-0.0711,-0.072,-0.0741,-0.0722,-0.0759,-0.0761,-0.0794,-0.0793,-0.0792,-0.0714,0,0,0,0,0,0,-0.0478,-0.0484,-0.0482,-0.0525,-0.0535,-0.055,-0.059,-0.06,-0.0613,-0.0618,-0.0668,-0.0677,-0.0713,-0.0737,-0.0743,-0.0726,-0.0764,-0.0795,-0.0794,-0.0792,-0.0717,-0.071,-0.0704,0,0,0,0,0,-0.0475,-0.0463,-0.0481,-0.0487,-0.0532,-0.0549,-0.0556,-0.0592,-0.0612,-0.0608,-0.0648,-0.0675,-0.0734,-0.0738,-0.0746,-0.073,-0.0795,-0.0794,-0.0792,-0.072,-0.0712,-0.0705,0,0,0,0,0,0,-0.0429,-0.0469,-0.049,-0.049,-0.0513,-0.0558,-0.0556,-0.0583,-0.0612,-0.0617,-0.0669,-0.068,-0.0694,-0.072,-0.0724,-0.0736,-0.0768,-0.0768,-0.071,-0.0702,-0.0696,-0.0677,-0.0766,0,0,0,0,0,-0.0417,-0.0423,-0.0461,-0.046,-0.0468,-0.0511,-0.0522,-0.0546,-0.0579,-0.0593,-0.0628,-0.0665,-0.0694,-0.0704,-0.0736,-0.0738,-0.0765,-0.0732,-0.0725,-0.072,-0.071,-0.0746,-0.0742,-0.0787,-0.0787,-0.0787,0,0,-0.0401,-0.0421,-0.0425,-0.0451,-0.0473,-0.0472,-0.0519,-0.0527,-0.0528,-0.0596,-0.0603,-0.0646,-0.0691,-0.0701,-0.0708,-0.0719,-0.0718,-0.0718,-0.0712,-0.0706,-0.0744,-0.074,-0.0736,-0.0786,-0.0786,-0.0786,0,0,-0.0359,-0.0385,-0.0372,-0.0387,-0.041,-0.0436,-0.0433,-0.0472,-0.049,-0.0504,-0.0555,-0.0583,-0.0622,-0.0652,-0.0673,-0.0646,-0.0688,-0.0654,-0.06,-0.0635,-0.0632,-0.0629,-0.0642,-0.0641,-0.0645,-0.0645,-0.0644,0,-0.0333,-0.033,-0.0368,-0.0356,-0.036,-0.0413,-0.0395,-0.0418,-0.0459,-0.0468,-0.0493,-0.0559,-0.0598,-0.0614,-0.0608,-0.063,-0.0652,-0.0625,-0.0626,-0.0624,-0.0623,-0.0637,-0.0637,-0.0641,-0.0641,-0.0641,-0.0642,0,-0.0285,-0.0282,-0.0272,-0.028,-0.0285,-0.0279,-0.0313,-0.0322,-0.0352,-0.0382,-0.0408,-0.0468,-0.0506,-0.0522,-0.0558,-0.0563,-0.0582,-0.0619,-0.0643,-0.0613,-0.063,-0.0632,-0.0635,-0.0636,-0.0638,-0.0639,0,0,-0.0228,-0.0237,-0.0232,-0.0224,-0.0245,-0.0244,-0.0239,-0.0252,-0.0246,-0.0296,-0.0295,-0.0354,-0.0396,-0.0422,-0.0473,-0.0501,-0.0509,-0.0546,-0.055,-0.0553,-0.0569,-0.0552,-0.0553,-0.055,-0.055,-0.055,-0.0579,0,-0.0178,-0.014,-0.016,-0.0124,-0.0109,-0.0149,-0.0136,-0.0156,-0.0186,-0.0198,-0.0266,-0.0289,-0.0355,-0.0371,-0.041,-0.0487,-0.0512,-0.0496,-0.0603,-0.0605,-0.059,-0.0554,-0.0544,-0.0566,-0.0581,-0.0581,-0.0581,0,-0.0122,-0.0106,-0.0059,-0.005,-0.0045,-0.0029,-0.0024,-0.0024,-0.0058,-0.0084,-0.0128,-0.0184,-0.0232,-0.0295,-0.0401,-0.0389,-0.0467,-0.0529,-0.0533,-0.0545,-0.0591,-0.0603,-0.0569,-0.0765,-0.0584,-0.0584,-0.0584,0,-0.006,-0.0036,0.0005,0.0008,0.0014,0.0032,0.0033,0.0016,0.0033,-0.0014,-0.0006,-0.0093,-0.0112,-0.0233,-0.035,-0.0382,-0.046,-0.0526,-0.0581,-0.0581,-0.0606,-0.0606,-0.0769,-0.0598,-0.0598,-0.0598,-0.0598,0,-0.0001,0.003,0.0038,0.006,0.0114,0.0095,0.0146,0.0125,0.0128,0.0179,0.0059,0.009,-0.0098,-0.0162,-0.0306,-0.0424,-0.0427,-0.0556,-0.0585,-0.0575,-0.0573,-0.0773,-0.0869,-0.0599,-0.0599,-0.0599,-0.0598,0,0.0063,0.0065,0.0112,0.0133,0.0146,0.0184,0.0227,0.0266,0.0247,0.0313,0.0309,0.0239,0.0161,-0.0017,-0.0187,-0.0335,-0.0577,-0.0519,-0.0479,-0.0502,-0.0754,-0.0844,-0.1015,-0.1114,-0.0599,-0.0599,-0.0599,0,0.0098,0.0133,0.0174,0.0214,0.0229,0.0281,0.0328,0.0324,0.0386,0.0431,0.0487,0.0429,0.044,0.0186,-0.0094,-0.0334,-0.0533,-0.0504,-0.0573,-0.075,-0.0874,-0.0958,-0.1036,-0.0575,-0.0574,-0.0574,-0.0573,0,0.0171,0.0186,0.0226,0.0312,0.0369,0.0439,0.0515,0.0592,0.0629,0.0698,0.0809,0.0823,0.0585,0.0368,0.0014,-0.0191,-0.0645,-0.0504,-0.0714,-0.0877,-0.0955,-0.1068,-0.0564,-0.057,-0.0571,-0.0571,-0.0571,-0.0571,0.0228,0.0277,0.0341,0.0428,0.0499,0.0625,0.0718,0.0821,0.0961,0.1104,0.1087,0.1139,0.0758,0.0285,-0.001,-0.0593,-0.061,-0.0785,-0.088,-0.0949,-0.105,-0.0516,-0.054,-0.054,-0.054,-0.054,-0.054,0,0.0314,0.0377,0.046,0.0579,0.0693,0.0705,0.087,0.0976,0.1183,0.1299,0.1399,0.1254,0.0791,0.0263,-0.0486,-0.0895,-0.109,-0.114,-0.1291,-0.1355,-0.0905,-0.091,-0.0983,-0.0983,-0.0983,-0.0983,-0.0982,-0.0982,0.0367,0.0474,0.0524,0.0741,0.0834,0.0995,0.1106,0.125,0.1364,0.1529,0.157,0.1576,0.1157,-0.0148,-0.1101,-0.1336,-0.1634,-0.1673,-0.184,-0.1568,-0.1543,-0.1521,-0.1552,-0.1758,-0.1759,-0.2268,-0.2273,-0.2277]}],[{"header":{"parameterUnit":"m.s-1","parameterCategory":2,"la1":30.2991,"la2":30.254,"lo1":-89.0895,"lo2":-89.0444,"dy":0.0017,"dx":0.0017,"nx":28,"ny":28,"refTime":"2023-03-13T21:00:00:Z","depth":"2","parameterNumber":2,"parameterNumberName":"U-component_of_CURRENTS"},"data":[0,0,0,0,0,0,0,0,0,0,0,0,0,0,0,0,0,0,0,0,0,0,0,0,0,0,0,0,0,0,0,0,0,0,0,0,0,0,0,0,0,0,0,0,0,0,0,0,0,0,0,0,0,0,0,0,0,0,0.2014,0.2015,0,0.2053,0.2053,0.2054,0.2075,0.2075,0.2075,0.2075,0.2112,0.2113,0.2114,0,0,0,0,0,0,0,0,0,0,0,0,0,0.1943,0.1945,0.2014,0.2015,0.2015,0.2053,0.2053,0.2054,0.2075,0.2075,0.2075,0.2075,0.2112,0.2113,0.2114,0,0,0,0,0,0,0,0,0,0,0,0,0,0.1977,0.1945,0.2014,0.2031,0.2033,0.2053,0.2053,0.2054,0.2075,0.2075,0.2075,0.2075,0.2111,0.2113,0.2114,0.2119,0,0,0.2118,0.2118,0,0,0,0,0,0,0,0,0.1975,0.1979,0.2028,0.2029,0.2032,0.206,0.2042,0.2076,0.2075,0.2058,0.2075,0.2075,0.2095,0.2097,0.2103,0.2121,0.2122,0.2118,0.2119,0.2119,0.212,0,0,0,0,0,0,0,0.1973,0.1978,0.2029,0.2028,0.2031,0.2031,0.2036,0.2048,0.2074,0.206,0.2061,0.2067,0.2096,0.2102,0.2104,0.2123,0.2118,0.2119,0.212,0.2121,0.2186,0.2187,0,0,0,0,0,0,0.197,0.1976,0.2028,0.203,0.2004,0.2032,0.2038,0.205,0.2074,0.2079,0.2066,0.2067,0.21,0.2103,0.2106,0.2145,0.2119,0.2121,0.2121,0.2185,0.2186,0.2187,0,0,0,0,0,0,0.1968,0.1974,0.2026,0.2004,0.201,0.2033,0.2047,0.2051,0.2065,0.208,0.2084,0.2078,0.21,0.2104,0.2134,0.2145,0.2121,0.2122,0.2184,0.2185,0.2186,0.2202,0,0,0,0,0,0,0.1966,0.1974,0.1983,0.2004,0.2012,0.2045,0.2047,0.2051,0.2068,0.207,0.2091,0.2094,0.21,0.2132,0.2135,0.2146,0.2123,0.2182,0.2184,0.2186,0.2201,0.2204,0.2207,0,0,0,0,0,0.1964,0.197,0.1984,0.199,0.2024,0.2045,0.2049,0.2065,0.2069,0.2078,0.2099,0.2094,0.2145,0.2134,0.2138,0.2149,0.2182,0.2184,0.2186,0.2199,0.2203,0.2207,0,0,0,0,0,0,0.1937,0.1974,0.1989,0.2005,0.2029,0.2049,0.2058,0.2069,0.2092,0.2096,0.2108,0.2113,0.2142,0.2146,0.2134,0.2175,0.2162,0.2165,0.2171,0.2175,0.2178,0.2178,0.2125,0,0,0,0,0,0.1939,0.1958,0.199,0.2003,0.2017,0.204,0.2051,0.2064,0.2086,0.2096,0.2111,0.2131,0.2152,0.2164,0.218,0.2204,0.2233,0.2214,0.2217,0.222,0.2224,0.2272,0.228,0.2194,0.2194,0.2194,0,0,0.1931,0.1954,0.1964,0.2,0.2019,0.204,0.2047,0.2068,0.2086,0.2096,0.2125,0.2142,0.2161,0.2189,0.2202,0.2196,0.2267,0.2222,0.2224,0.2227,0.2275,0.2284,0.2291,0.2195,0.2195,0.2195,0,0,0.1922,0.1949,0.1964,0.1987,0.2021,0.2041,0.2049,0.2078,0.2095,0.2124,0.2139,0.2167,0.2192,0.2214,0.2227,0.2258,0.2281,0.2261,0.2279,0.2326,0.2334,0.2341,0.2418,0.2431,0.2264,0.2264,0.2264,0,0.1911,0.194,0.1969,0.1989,0.2009,0.2042,0.2062,0.2083,0.2118,0.214,0.2135,0.2193,0.2204,0.225,0.226,0.2265,0.2307,0.226,0.2331,0.2338,0.2344,0.2421,0.2436,0.2265,0.2265,0.2264,0.2264,0,0.1916,0.1942,0.1951,0.1995,0.2018,0.2041,0.2079,0.2107,0.2129,0.2153,0.22,0.2222,0.2261,0.2265,0.2271,0.2326,0.2348,0.2328,0.2319,0.2354,0.2433,0.2448,0.2266,0.2266,0.2265,0.2265,0,0,0.1886,0.1945,0.1949,0.1974,0.2026,0.2046,0.2086,0.2136,0.2175,0.2199,0.2248,0.2276,0.2296,0.2313,0.2328,0.2361,0.2448,0.2366,0.2368,0.2441,0.2587,0.256,0.2574,0.2442,0.2444,0.2445,0.2633,0,0.1886,0.1922,0.1954,0.1992,0.2018,0.2065,0.2104,0.2151,0.2197,0.2252,0.2281,0.2333,0.2313,0.2347,0.2374,0.2442,0.2484,0.2401,0.2543,0.2548,0.2517,0.2588,0.2377,0.2522,0.2648,0.2651,0.2652,0,0.188,0.1912,0.1944,0.2009,0.2025,0.2052,0.2132,0.2172,0.2255,0.2295,0.2348,0.2385,0.2461,0.2422,0.255,0.2504,0.2545,0.2579,0.2586,0.2562,0.2548,0.2502,0.2544,0.2678,0.2676,0.2674,0.2672,0,0.1847,0.1904,0.1932,0.1952,0.2026,0.2053,0.21,0.2182,0.2243,0.2335,0.2404,0.2472,0.2553,0.2594,0.2683,0.2628,0.2825,0.2757,0.2772,0.2772,0.262,0.2602,0.2828,0.2828,0.2827,0.2827,0.2826,0,0.1833,0.1854,0.192,0.1934,0.198,0.2038,0.2103,0.2163,0.2274,0.2368,0.2429,0.2533,0.2599,0.2719,0.274,0.2839,0.2884,0.28,0.2819,0.2623,0.2604,0.2744,0.2732,0.2834,0.2832,0.2831,0.2829,0,0.1782,0.1826,0.1862,0.1937,0.1962,0.1993,0.2109,0.2168,0.2284,0.2416,0.2462,0.263,0.2776,0.2851,0.2969,0.2948,0.3015,0.3028,0.2815,0.2803,0.2912,0.2899,0.305,0.3051,0.3051,0.3052,0.3052,0,0.1758,0.177,0.1844,0.1875,0.1907,0.1971,0.2024,0.2148,0.2234,0.2481,0.2551,0.2748,0.2856,0.3042,0.3032,0.3084,0.3096,0.2924,0.2744,0.2933,0.2936,0.2921,0.2908,0.2572,0.2568,0.2565,0.2563,0,0.1712,0.1737,0.1768,0.184,0.1892,0.1956,0.2053,0.2128,0.2303,0.2433,0.2637,0.2748,0.2912,0.2875,0.2953,0.2939,0.2886,0.2864,0.3145,0.2536,0.2493,0.2492,0.2492,0.2537,0.2539,0.2541,0.2543,0.2544,0.1676,0.1696,0.1755,0.182,0.1874,0.1956,0.1999,0.2125,0.2264,0.2419,0.2555,0.2617,0.2687,0.2658,0.2644,0.2633,0.2782,0.2656,0.266,0.2668,0.2567,0.2525,0.256,0.2562,0.2565,0.2567,0.2568,0,0.1677,0.1712,0.1748,0.1832,0.1876,0.1922,0.203,0.2062,0.2194,0.2283,0.2366,0.2198,0.2212,0.2288,0.223,0.2268,0.2192,0.2192,0.2061,0.2092,0.2118,0.1981,0.1823,0.182,0.1817,0.1815,0,0,0.1685,0.1733,0.1762,0.1833,0.1874,0.1922,0.1969,0.2031,0.2076,0.2014,0.1978,0.2037,0.2199,0.1927,0.1952,0.1882,0.1954,0.1822,0.243,0.2305,0.2326,0.2413,0.2243,0,0,0,0,0]},{"header":{"parameterUnit":"m.s-1","parameterCategory":2,"la1":30.2991,"la2":30.254,"lo1":-89.0895,"lo2":-89.0444,"dy":0.0017,"dx":0.0017,"nx":28,"ny":28,"refTime":"2023-03-13T21:00:00:Z","depth":"2","parameterNumber":3,"parameterNumberName":"V-component_of_CURRENTS"},"data":[0,0,0,0,0,0,0,0,0,0,0,0,0,0,0,0,0,0,0,0,0,0,0,0,0,0,0,0,0,0,0,0,0,0,0,0,0,0,0,0,0,0,0,0,0,0,0,0,0,0,0,0,0,0,0,0,0,0,-0.0231,-0.0232,0,-0.03,-0.0301,-0.0302,-0.0361,-0.0362,-0.0362,-0.0363,-0.0458,-0.046,-0.0462,0,0,0,0,0,0,0,0,0,0,0,0,0,-0.0179,-0.0179,-0.0231,-0.0232,-0.0232,-0.03,-0.0301,-0.0302,-0.0361,-0.0362,-0.0362,-0.0363,-0.0457,-0.046,-0.0462,0,0,0,0,0,0,0,0,0,0,0,0,0,-0.0222,-0.018,-0.0231,-0.0268,-0.0272,-0.03,-0.0301,-0.0303,-0.0361,-0.0362,-0.0363,-0.0363,-0.0456,-0.0459,-0.0462,-0.0468,0,0,-0.0472,-0.0473,0,0,0,0,0,0,0,0,-0.0219,-0.0224,-0.0262,-0.0266,-0.027,-0.0321,-0.0317,-0.0358,-0.0361,-0.033,-0.0363,-0.0364,-0.0412,-0.0419,-0.0433,-0.0472,-0.0476,-0.0472,-0.0474,-0.0476,-0.0476,0,0,0,0,0,0,0,-0.0216,-0.0222,-0.0261,-0.0263,-0.0268,-0.0291,-0.0298,-0.0326,-0.0369,-0.0333,-0.0336,-0.034,-0.0415,-0.043,-0.0436,-0.0478,-0.0472,-0.0475,-0.0477,-0.0478,-0.0534,-0.0533,0,0,0,0,0,0,-0.0201,-0.0218,-0.0258,-0.0263,-0.0243,-0.0291,-0.0299,-0.0306,-0.0368,-0.0377,-0.034,-0.0343,-0.0425,-0.0432,-0.044,-0.045,-0.0476,-0.0478,-0.048,-0.0534,-0.0534,-0.0533,0,0,0,0,0,0,-0.02,-0.0204,-0.0256,-0.024,-0.0248,-0.0291,-0.0298,-0.0307,-0.0326,-0.0373,-0.0383,-0.0351,-0.0425,-0.0435,-0.0466,-0.0455,-0.048,-0.0483,-0.0535,-0.0534,-0.0533,-0.0471,0,0,0,0,0,0,-0.0198,-0.0203,-0.0204,-0.0239,-0.0248,-0.0263,-0.0298,-0.0307,-0.0326,-0.0331,-0.0385,-0.0395,-0.0427,-0.0461,-0.0469,-0.0459,-0.0485,-0.0535,-0.0534,-0.0534,-0.0474,-0.0469,-0.0464,0,0,0,0,0,-0.0196,-0.0186,-0.0204,-0.0208,-0.0248,-0.0262,-0.0269,-0.0304,-0.0326,-0.0326,-0.0369,-0.0393,-0.0462,-0.0464,-0.0473,-0.0464,-0.0536,-0.0535,-0.0534,-0.0476,-0.047,-0.0464,0,0,0,0,0,0,-0.0163,-0.0192,-0.0212,-0.0212,-0.0234,-0.0272,-0.0275,-0.03,-0.0335,-0.0343,-0.0393,-0.0404,-0.0428,-0.0453,-0.0454,-0.0477,-0.0501,-0.0502,-0.0454,-0.0448,-0.0443,-0.0424,-0.0488,0,0,0,0,0,-0.0155,-0.0158,-0.0189,-0.019,-0.0198,-0.0238,-0.025,-0.0273,-0.0306,-0.0323,-0.0361,-0.0399,-0.043,-0.0445,-0.0477,-0.0489,-0.0514,-0.0488,-0.0483,-0.0479,-0.0469,-0.0505,-0.0503,-0.053,-0.053,-0.053,0,0,-0.0145,-0.0158,-0.0163,-0.0183,-0.0205,-0.0207,-0.0248,-0.0259,-0.0263,-0.0326,-0.0345,-0.0387,-0.0431,-0.0448,-0.0459,-0.0468,-0.0482,-0.0477,-0.0473,-0.0466,-0.0504,-0.0501,-0.0499,-0.053,-0.053,-0.053,0,0,-0.0114,-0.0136,-0.0126,-0.0139,-0.0161,-0.0183,-0.0183,-0.0221,-0.024,-0.0262,-0.0309,-0.0342,-0.0387,-0.0415,-0.0435,-0.0421,-0.0459,-0.0431,-0.0387,-0.0422,-0.042,-0.0418,-0.0436,-0.0437,-0.0423,-0.0423,-0.0423,0,-0.0099,-0.0094,-0.0124,-0.0114,-0.0119,-0.0167,-0.0155,-0.0179,-0.0222,-0.0232,-0.0258,-0.0329,-0.0369,-0.0389,-0.0386,-0.0409,-0.0432,-0.0405,-0.0415,-0.0414,-0.0414,-0.0433,-0.0434,-0.042,-0.042,-0.0421,-0.0421,0,-0.0061,-0.0059,-0.0052,-0.0058,-0.0064,-0.0063,-0.0093,-0.0107,-0.0139,-0.0167,-0.0199,-0.0259,-0.0298,-0.0316,-0.0348,-0.0361,-0.0379,-0.0408,-0.0427,-0.0407,-0.0429,-0.0431,-0.0416,-0.0417,-0.0418,-0.0418,0,0,-0.0022,-0.0024,-0.0022,-0.0016,-0.0035,-0.0034,-0.0035,-0.005,-0.0049,-0.0101,-0.0105,-0.0168,-0.0207,-0.0232,-0.028,-0.031,-0.0328,-0.0351,-0.0354,-0.0363,-0.0395,-0.04,-0.0404,-0.0364,-0.0364,-0.0365,-0.0407,0,0.0015,0.005,0.0036,0.0062,0.0074,0.0039,0.0048,0.0027,-0.0003,-0.002,-0.0086,-0.0113,-0.0173,-0.0192,-0.0231,-0.0306,-0.0334,-0.0313,-0.0417,-0.042,-0.0424,-0.0407,-0.0387,-0.0423,-0.041,-0.0411,-0.0411,0,0.0059,0.0076,0.0114,0.0125,0.0128,0.0139,0.0141,0.0138,0.0103,0.0076,0.0031,-0.0022,-0.0074,-0.013,-0.0238,-0.0223,-0.0299,-0.0359,-0.0362,-0.039,-0.0431,-0.0445,-0.0429,-0.0416,-0.0416,-0.0415,-0.0415,0,0.0108,0.0129,0.0164,0.0167,0.0174,0.0188,0.0188,0.017,0.0185,0.0135,0.014,0.0053,0.0029,-0.0087,-0.0203,-0.0226,-0.0317,-0.0369,-0.0442,-0.0443,-0.0457,-0.0459,-0.0443,-0.0442,-0.0442,-0.0442,-0.0442,0,0.0157,0.0181,0.0191,0.021,0.0257,0.024,0.0284,0.0263,0.0263,0.0308,0.0194,0.0216,0.0039,-0.0031,-0.0168,-0.0297,-0.0291,-0.0426,-0.0455,-0.0434,-0.0433,-0.0455,-0.0456,-0.0444,-0.0444,-0.0443,-0.0443,0,0.0207,0.021,0.025,0.0271,0.0283,0.0316,0.0356,0.0389,0.0368,0.0425,0.0419,0.0346,0.0247,0.0074,-0.0095,-0.0226,-0.0369,-0.0417,-0.0369,-0.0392,-0.0485,-0.0482,-0.0519,-0.052,-0.052,-0.052,-0.0521,0,0.0235,0.0265,0.0304,0.034,0.0353,0.0399,0.0442,0.0439,0.0495,0.0528,0.0577,0.0495,0.0452,0.0186,-0.0063,-0.0308,-0.034,-0.0436,-0.0488,-0.0468,-0.0493,-0.049,-0.0486,-0.0479,-0.0479,-0.0479,-0.0479,0,0.0293,0.0308,0.0343,0.0422,0.0473,0.054,0.061,0.0679,0.0714,0.0751,0.0815,0.0775,0.0518,0.0263,-0.0076,-0.0233,-0.0406,-0.0444,-0.0435,-0.046,-0.0434,-0.0457,-0.0455,-0.0479,-0.0479,-0.0479,-0.0479,-0.0479,0.0338,0.0381,0.0439,0.052,0.0586,0.0704,0.0793,0.0867,0.097,0.1034,0.098,0.0895,0.0605,0.0148,-0.0119,-0.0393,-0.0401,-0.0509,-0.0508,-0.0508,-0.0492,-0.0468,-0.0516,-0.0516,-0.0516,-0.0517,-0.0517,0,0.0404,0.0464,0.0539,0.0652,0.0761,0.0774,0.093,0.0991,0.1132,0.1128,0.1109,0.0819,0.0509,0.0201,-0.0218,-0.048,-0.0499,-0.0541,-0.0521,-0.0519,-0.0518,-0.0503,-0.053,-0.0531,-0.0532,-0.0532,0,0,0.0444,0.054,0.059,0.0796,0.0886,0.1043,0.1149,0.1202,0.1223,0.1193,0.1128,0.0933,0.0581,0.0271,-0.0079,-0.0301,-0.0344,-0.0336,-0.03,-0.0233,-0.0229,-0.0477,-0.045,0,0,0,0,0]}],[{"header":{"parameterUnit":"m.s-1","parameterCategory":2,"la1":30.2991,"la2":30.254,"lo1":-89.0895,"lo2":-89.0444,"dy":0.0017,"dx":0.0017,"nx":28,"ny":28,"refTime":"2023-03-13T21:00:00:Z","depth":"4","parameterNumber":2,"parameterNumberName":"U-component_of_CURRENTS"},"data":[0,0,0,0,0,0,0,0,0,0,0,0,0,0,0,0,0,0,0,0,0,0,0,0,0,0,0,0,0,0,0,0,0,0,0,0,0,0,0,0,0,0,0,0,0,0,0,0,0,0,0,0,0,0,0,0,0,0,0.1166,0.1167,0,0.1261,0.1262,0.1263,0.1321,0.1321,0.1321,0.1322,0.139,0.1392,0.1393,0,0,0,0,0,0,0,0,0,0,0,0,0,0.1081,0.1082,0.1166,0.1167,0.1169,0.1261,0.1262,0.1263,0.1321,0.1321,0.1322,0.1322,0.139,0.1391,0.1393,0,0,0,0,0,0,0,0,0,0,0,0,0,0.1139,0.1082,0.1166,0.121,0.1215,0.126,0.1262,0.1263,0.132,0.1321,0.1322,0.1322,0.1389,0.1391,0.1393,0.1394,0,0,0.14,0.1401,0,0,0,0,0,0,0,0,0.1136,0.1142,0.1202,0.1207,0.1212,0.1281,0.1257,0.1306,0.132,0.1279,0.1322,0.1323,0.1352,0.1357,0.1372,0.1397,0.14,0.14,0.1401,0.1402,0.1403,0,0,0,0,0,0,0,0.1132,0.1139,0.1202,0.1203,0.121,0.124,0.1249,0.1267,0.1309,0.1282,0.1287,0.13,0.1354,0.1369,0.1374,0.1401,0.14,0.1402,0.1403,0.1404,0.1508,0.1509,0,0,0,0,0,0,0.112,0.1135,0.1199,0.1205,0.1177,0.1241,0.1251,0.1257,0.1309,0.1319,0.1299,0.1302,0.1366,0.1371,0.1376,0.1456,0.1402,0.1404,0.1406,0.1507,0.1508,0.151,0,0,0,0,0,0,0.1118,0.1124,0.1195,0.1174,0.1185,0.1242,0.1249,0.1259,0.1305,0.1323,0.1331,0.1339,0.1366,0.1373,0.142,0.1456,0.1405,0.1407,0.1505,0.1507,0.1509,0.1565,0,0,0,0,0,0,0.1115,0.1123,0.1137,0.1172,0.1186,0.1241,0.1249,0.126,0.131,0.1316,0.1359,0.1364,0.1367,0.1417,0.1422,0.1458,0.1409,0.1503,0.1506,0.1508,0.1562,0.1569,0.1576,0,0,0,0,0,0.1111,0.1126,0.1137,0.1146,0.1199,0.1242,0.1252,0.1293,0.1312,0.1337,0.1368,0.1365,0.1438,0.142,0.1426,0.1463,0.1502,0.1505,0.1508,0.1558,0.1568,0.1576,0,0,0,0,0,0,0.1096,0.1135,0.1147,0.1173,0.1213,0.1253,0.1288,0.1311,0.1356,0.1371,0.1383,0.1391,0.1445,0.1446,0.1425,0.15,0.147,0.1474,0.1506,0.1514,0.1521,0.152,0.1411,0,0,0,0,0,0.1097,0.1123,0.1159,0.1185,0.1209,0.1253,0.1282,0.1309,0.1347,0.1371,0.14,0.143,0.1458,0.1481,0.1502,0.1544,0.1542,0.1571,0.1578,0.1584,0.1587,0.1612,0.1621,0.1521,0.1521,0.1521,0,0,0.1098,0.1125,0.114,0.1186,0.1224,0.1263,0.1274,0.1328,0.1364,0.1368,0.1437,0.1458,0.1475,0.1523,0.1547,0.1532,0.1615,0.1589,0.1594,0.1593,0.1616,0.1626,0.1635,0.1523,0.1523,0.1522,0,0,0.1114,0.1141,0.1171,0.1207,0.1267,0.1292,0.1313,0.1369,0.1403,0.1459,0.1473,0.1516,0.1564,0.1583,0.1596,0.1654,0.1649,0.1668,0.1707,0.1731,0.174,0.1747,0.1766,0.1774,0.1674,0.1674,0.1674,0,0.1117,0.1154,0.1188,0.1229,0.1264,0.1308,0.1347,0.1387,0.1451,0.148,0.1489,0.1572,0.1589,0.1642,0.1667,0.1671,0.1683,0.1673,0.174,0.1747,0.1754,0.1771,0.1779,0.1677,0.1677,0.1676,0.1676,0,0.1151,0.1192,0.1219,0.128,0.1318,0.1365,0.1413,0.1463,0.1507,0.154,0.1612,0.164,0.1687,0.1703,0.1707,0.1767,0.1761,0.1744,0.1716,0.1767,0.1782,0.179,0.1681,0.168,0.1679,0.1679,0,0,0.1125,0.1222,0.1235,0.1274,0.135,0.1383,0.1449,0.1513,0.156,0.1622,0.168,0.1738,0.176,0.1776,0.1791,0.1816,0.1877,0.1809,0.1809,0.1824,0.1937,0.1836,0.1834,0.1877,0.1878,0.188,0.1932,0,0.1146,0.1223,0.1265,0.1341,0.1384,0.1442,0.1494,0.1557,0.1613,0.1679,0.1722,0.1782,0.1785,0.182,0.1849,0.1868,0.1899,0.1864,0.1889,0.1889,0.179,0.184,0.1885,0.1938,0.1939,0.1941,0.1942,0,0.116,0.1213,0.1286,0.1375,0.14,0.1449,0.154,0.1595,0.1684,0.1729,0.1796,0.1831,0.1897,0.1883,0.1948,0.193,0.1946,0.1952,0.1954,0.1842,0.1802,0.1875,0.1955,0.1954,0.1953,0.1952,0.1952,0,0.1123,0.1225,0.1284,0.1317,0.142,0.1468,0.1526,0.1615,0.1663,0.177,0.1819,0.1889,0.1939,0.1968,0.2001,0.1985,0.2056,0.2027,0.195,0.1944,0.1993,0.1985,0.2072,0.2072,0.2072,0.2072,0.2072,0,0.1115,0.1168,0.1279,0.1313,0.1382,0.1459,0.1539,0.1607,0.1698,0.1753,0.1848,0.1892,0.1966,0.2015,0.2025,0.2014,0.208,0.1965,0.1952,0.2017,0.2011,0.1999,0.199,0.2074,0.2074,0.2073,0.2073,0,0.1064,0.114,0.1214,0.133,0.1369,0.1419,0.1539,0.1587,0.1693,0.1768,0.1806,0.1913,0.1975,0.2034,0.2083,0.2037,0.2037,0.202,0.21,0.209,0.1902,0.1896,0.1926,0.1922,0.192,0.1918,0.1916,0,0.1044,0.1079,0.1208,0.1249,0.1308,0.1399,0.1452,0.1569,0.1616,0.1759,0.1777,0.1887,0.1948,0.1941,0.2005,0.2024,0.2005,0.1995,0.1933,0.1904,0.1889,0.1886,0.1883,0.1912,0.1911,0.191,0.191,0,0.0998,0.1054,0.1111,0.1194,0.1263,0.1331,0.1421,0.1437,0.1564,0.1676,0.1716,0.1758,0.1829,0.1865,0.1908,0.1912,0.1989,0.1967,0.1972,0.1913,0.1887,0.1874,0.1874,0.19,0.1902,0.1903,0.1903,0,0.0959,0.0983,0.1063,0.1121,0.1203,0.1236,0.1297,0.1356,0.1414,0.1566,0.1571,0.1695,0.1798,0.1808,0.1837,0.1847,0.1815,0.1752,0.1767,0.1778,0.1707,0.1651,0.1588,0,0,0,0,0,0.0911,0.093,0.0983,0.1044,0.1119,0.1163,0.126,0.1319,0.1437,0.1427,0.1495,0.1555,0.1609,0.1668,0.1649,0.1773,0.182,0.1743,0.1755,0.185,0.186,0.1791,0,0,0,0,0,0,0.0878,0.093,0.095,0.0962,0.0985,0.1054,0.1107,0.1187,0.1192,0.1319,0.1356,0.1466,0.1541,0.1603,0.1619,0.1639,0.1618,0.1824,0.1821,0.1844,0.1853,0.1862,0.1794,0,0,0,0,0]},{"header":{"parameterUnit":"m.s-1","parameterCategory":2,"la1":30.2991,"la2":30.254,"lo1":-89.0895,"lo2":-89.0444,"dy":0.0017,"dx":0.0017,"nx":28,"ny":28,"refTime":"2023-03-13T21:00:00:Z","depth":"4","parameterNumber":3,"parameterNumberName":"V-component_of_CURRENTS"},"data":[0,0,0,0,0,0,0,0,0,0,0,0,0,0,0,0,0,0,0,0,0,0,0,0,0,0,0,0,0,0,0,0,0,0,0,0,0,0,0,0,0,0,0,0,0,0,0,0,0,0,0,0,0,0,0,0,0,0,0.0152,0.0152,0,0.0081,0.008,0.008,0.0047,0.0047,0.0047,0.0047,-0.0026,-0.0028,-0.003,0,0,0,0,0,0,0,0,0,0,0,0,0,0.0189,0.0189,0.0152,0.0151,0.0151,0.0081,0.008,0.0079,0.0047,0.0047,0.0047,0.0047,-0.0026,-0.0028,-0.003,0,0,0,0,0,0,0,0,0,0,0,0,0,0.0152,0.0189,0.0153,0.0125,0.0122,0.0081,0.008,0.0079,0.0047,0.0047,0.0047,0.0047,-0.0025,-0.0028,-0.0031,-0.0049,0,0,-0.004,-0.0041,0,0,0,0,0,0,0,0,0.0154,0.0151,0.013,0.0127,0.0124,0.0072,0.0066,0.0036,0.0047,0.0076,0.0047,0.0047,0.0006,0.0001,-0.0012,-0.0053,-0.0056,-0.004,-0.0042,-0.0043,-0.0044,0,0,0,0,0,0,0,0.0157,0.0153,0.0125,0.0129,0.0125,0.0092,0.0088,0.006,0.0042,0.0073,0.0071,0.0062,0.0004,-0.0009,-0.0014,-0.0057,-0.004,-0.0043,-0.0044,-0.0046,-0.0114,-0.0114,0,0,0,0,0,0,0.0168,0.0156,0.0127,0.0123,0.0139,0.0092,0.0087,0.0089,0.0042,0.0035,0.0062,0.0061,-0.0004,-0.0011,-0.0017,-0.0041,-0.0043,-0.0046,-0.0047,-0.0114,-0.0114,-0.0114,0,0,0,0,0,0,0.017,0.0167,0.013,0.0136,0.0129,0.0092,0.0094,0.0088,0.0072,0.0034,0.0026,0.0053,-0.0004,-0.0013,-0.004,-0.0044,-0.0047,-0.005,-0.0113,-0.0114,-0.0114,-0.0089,0,0,0,0,0,0,0.0171,0.0168,0.0172,0.0138,0.0129,0.0108,0.0094,0.0086,0.0067,0.0064,0.0024,0.0017,-0.0005,-0.0035,-0.0043,-0.0048,-0.0052,-0.0113,-0.0113,-0.0114,-0.009,-0.0089,-0.0087,0,0,0,0,0,0.0173,0.0176,0.0173,0.0169,0.0137,0.0108,0.0101,0.0074,0.0067,0.006,0.0034,0.0018,-0.0041,-0.0038,-0.0047,-0.0053,-0.0113,-0.0113,-0.0114,-0.0091,-0.0089,-0.0087,0,0,0,0,0,0,0.0189,0.0172,0.0168,0.0165,0.0141,0.0102,0.0091,0.0075,0.0049,0.0047,0.0014,0.0005,-0.0022,-0.0039,-0.0034,-0.0072,-0.0079,-0.0081,-0.0059,-0.0057,-0.0056,-0.0043,-0.0054,0,0,0,0,0,0.0198,0.02,0.0173,0.0171,0.016,0.0127,0.0112,0.0094,0.0066,0.0054,0.0026,-0.0002,-0.0029,-0.0043,-0.0071,-0.0092,-0.0111,-0.01,-0.0098,-0.0097,-0.0092,-0.0124,-0.0125,-0.0114,-0.0114,-0.0114,0,0,0.0203,0.0194,0.0194,0.0175,0.0154,0.014,0.0118,0.0096,0.0086,0.005,0.0027,-0.0002,-0.0034,-0.0059,-0.0072,-0.0073,-0.0111,-0.0097,-0.0096,-0.0092,-0.0124,-0.0125,-0.0126,-0.0114,-0.0114,-0.0114,0,0,0.0209,0.0207,0.0208,0.0192,0.0165,0.0147,0.0143,0.0106,0.0092,0.0066,0.0039,0.001,-0.0031,-0.0055,-0.0072,-0.0079,-0.0105,-0.0087,-0.0068,-0.0099,-0.01,-0.0102,-0.0129,-0.0133,-0.0083,-0.0083,-0.0083,0,0.0215,0.0217,0.0201,0.0194,0.0185,0.0154,0.0149,0.0127,0.0086,0.0078,0.0064,0.0003,-0.0028,-0.0056,-0.0059,-0.0076,-0.0095,-0.0072,-0.0097,-0.0099,-0.0101,-0.0129,-0.0133,-0.0082,-0.0082,-0.0082,-0.0082,0,0.0217,0.0219,0.0216,0.0206,0.0194,0.0184,0.0158,0.0142,0.0123,0.0101,0.0068,0.0023,-0.0009,-0.0028,-0.0047,-0.0073,-0.0084,-0.0095,-0.01,-0.01,-0.013,-0.0135,-0.008,-0.0081,-0.0081,-0.0081,0,0,0.023,0.0222,0.0221,0.0226,0.0203,0.0195,0.0183,0.0164,0.0162,0.0117,0.0108,0.0051,0.0028,0.0008,-0.0025,-0.0054,-0.0089,-0.0075,-0.0077,-0.01,-0.0156,-0.017,-0.0177,-0.0104,-0.0105,-0.0105,-0.0172,0,0.0237,0.0239,0.0232,0.0236,0.0236,0.0218,0.0216,0.0196,0.0173,0.0155,0.0106,0.0082,0.0042,0.0028,-0.0009,-0.0067,-0.0101,-0.007,-0.0155,-0.0157,-0.0167,-0.0183,-0.0108,-0.0176,-0.0178,-0.0179,-0.0179,0,0.024,0.0246,0.0256,0.0266,0.0266,0.0267,0.0267,0.0259,0.0228,0.0211,0.0174,0.0136,0.0084,0.0053,-0.0047,-0.0025,-0.0086,-0.0135,-0.0139,-0.0162,-0.018,-0.0177,-0.0189,-0.0188,-0.0187,-0.0187,-0.0186,0,0.026,0.0263,0.028,0.028,0.0283,0.0292,0.0294,0.0277,0.0282,0.0247,0.0243,0.0174,0.014,0.0057,-0.0049,-0.0046,-0.0161,-0.0169,-0.0242,-0.0244,-0.0221,-0.0219,-0.0241,-0.0241,-0.0241,-0.0241,-0.0241,0,0.0271,0.0282,0.0295,0.0303,0.0333,0.0324,0.0351,0.0339,0.0332,0.0335,0.0278,0.0254,0.0139,0.0058,-0.0036,-0.0157,-0.0154,-0.0242,-0.0264,-0.0209,-0.0205,-0.0225,-0.0222,-0.0243,-0.0243,-0.0242,-0.0242,0,0.0284,0.029,0.0312,0.0331,0.0344,0.0365,0.0397,0.041,0.04,0.0401,0.0394,0.0312,0.02,0.0081,-0.0064,-0.0139,-0.0252,-0.0297,-0.023,-0.0246,-0.0315,-0.031,-0.0376,-0.0377,-0.0378,-0.0379,-0.0379,0,0.0288,0.0303,0.0341,0.0364,0.0376,0.0411,0.0438,0.0443,0.0455,0.0427,0.0424,0.0327,0.0255,0.0051,-0.0085,-0.0261,-0.0291,-0.0342,-0.0331,-0.0316,-0.033,-0.0324,-0.0318,-0.0381,-0.0381,-0.0381,-0.0381,0,0.0298,0.0315,0.0336,0.0388,0.0423,0.0462,0.0494,0.0508,0.0504,0.0508,0.0446,0.0337,0.0205,0.0042,-0.01,-0.0228,-0.0301,-0.0352,-0.0351,-0.0341,-0.0322,-0.0334,-0.0327,-0.0385,-0.0384,-0.0384,-0.0384,0,0.0303,0.0322,0.0353,0.0396,0.0445,0.0476,0.0501,0.0508,0.0518,0.0493,0.0465,0.033,0.0254,0.0057,-0.0076,-0.0201,-0.0232,-0.0262,-0.0266,-0.0264,-0.0215,-0.0174,-0.0212,0,0,0,0,0,0.0297,0.0311,0.0356,0.0391,0.0444,0.0468,0.0517,0.0536,0.0542,0.0508,0.049,0.0368,0.0165,0.0073,-0.0055,-0.0107,-0.0264,-0.0262,-0.0303,-0.0402,-0.0399,-0.0362,0,0,0,0,0,0,0.0284,0.0321,0.0342,0.0377,0.0403,0.0451,0.048,0.0492,0.0476,0.0472,0.0369,0.0335,0.0138,0.0235,-0.0061,-0.01,-0.0142,-0.035,-0.0353,-0.0405,-0.0401,-0.0398,-0.0359,0,0,0,0,0]}]]